BM1CKC-10 Weather Reports


Display with metric or nautical units.
time (UTC)temp
F
wind
direction
speed
MPH
gust
MPH
rain 1hr
in
rain 24hr
in
rain mn
in
humidity
%
barometer
mb
20260508084958 82 0.0 0.0 0.00 0.00 0.00 61 1008.9
20260508082958 82 0.0 0.0 0.00 0.00 0.00 61 1008.7
20260508080958 83 0.0 0.0 0.00 0.00 0.00 59 1008.3
20260508074958 82 0.0 0.0 0.00 0.00 0.00 60 1008.1
20260508072959 83 0.0 0.0 0.00 0.00 0.00 59 1008.1
20260508071013 82 0.0 0.0 0.00 0.00 0.00 61 1008.0
20260508064958 82 0.0 0.0 0.00 0.00 0.00 61 1008.0
20260508062959 83 0.0 0.0 0.00 0.00 0.00 60 1008.0
20260508060959 82 0.0 0.0 0.00 0.00 0.00 60 1007.9
20260508054958 83 0.0 0.0 0.00 0.00 0.00 60 1008.1
20260508052958 83 0.0 0.0 0.00 0.00 0.00 60 1008.1
20260508050958 83 0.0 0.0 0.00 0.00 0.00 60 1008.2
20260508044958 83 0.0 0.0 0.00 0.00 0.00 60 1008.3
20260508042958 83 0.0 0.0 0.00 0.00 0.00 60 1008.5
20260508040958 83 0.0 0.0 0.00 0.00 0.00 61 1008.8
20260508034958 82 0.0 0.0 0.00 0.00 0.00 62 1008.8
20260508032958 82 0.0 0.0 0.00 0.00 0.00 61 1008.9
20260508030959 82 0.0 0.0 0.00 0.00 0.00 62 1009.1
20260508024959 82 0.0 0.0 0.00 0.00 0.00 62 1009.0
20260508022958 82 0.0 0.0 0.00 0.00 0.00 62 1009.0
20260508020958 82 0.0 0.0 0.00 0.00 0.00 62 1008.9
20260508014958 82 0.0 0.0 0.00 0.00 0.00 62 1008.9
20260508012958 82 0.0 0.0 0.00 0.00 0.00 62 1008.6
20260508011005 83 0.0 0.0 0.00 0.00 0.00 61 1008.5
20260508004958 83 0.0 0.0 0.00 0.00 0.00 60 1008.4
20260508002958 82 0.0 0.0 0.00 0.00 0.00 62 1008.2
20260508000958 83 0.0 0.0 0.00 0.00 0.00 60 1007.9
20260507234959 83 0.0 0.0 0.00 0.00 0.00 60 1007.7
20260507232959 80 0.0 0.0 0.00 0.00 0.00 60 1007.7
20260507230958 78 0.0 0.0 0.00 0.00 0.00 64 1007.6
20260507224959 77 0.0 0.0 0.00 0.00 0.00 59 1007.3
20260507222958 77 0.0 0.0 0.00 0.00 0.00 61 1007.1
20260507220959 77 0.0 0.0 0.00 0.00 0.00 61 1006.8
20260507212959 78 0.0 0.0 0.00 0.00 0.00 59 1006.4
20260507210959 78 0.0 0.0 0.00 0.00 0.00 60 1006.4
20260507204958 78 0.0 0.0 0.00 0.00 0.00 59 1006.2
20260507202958 78 0.0 0.0 0.00 0.00 0.00 60 1005.9
20260507200959 77 0.0 0.0 0.00 0.00 0.00 61 1005.6
20260507194959 77 0.0 0.0 0.00 0.00 0.00 60 1005.4
20260507192959 78 0.0 0.0 0.00 0.00 0.00 60 1005.2
20260507190959 78 0.0 0.0 0.00 0.00 0.00 59 1005.2
20260507184958 79 0.0 0.0 0.00 0.00 0.00 59 1005.2
20260507182958 78 0.0 0.0 0.00 0.00 0.00 58 1005.1
20260507180958 78 0.0 0.0 0.00 0.00 0.00 59 1005.0
20260507174958 77 0.0 0.0 0.00 0.00 0.00 59 1004.9
20260507172959 78 0.0 0.0 0.00 0.00 0.00 59 1004.7
20260507170959 78 0.0 0.0 0.00 0.00 0.00 61 1004.9
20260507164959 77 0.0 0.0 0.00 0.00 0.00 60 1005.0
20260507162959 77 0.0 0.0 0.00 0.00 0.00 58 1005.2
20260507160959 78 0.0 0.0 0.00 0.00 0.00 58 1005.4
20260507154959 78 0.0 0.0 0.00 0.00 0.00 58 1005.7
20260507152959 77 0.0 0.0 0.00 0.00 0.00 59 1005.8
20260507150959 78 0.0 0.0 0.00 0.00 0.00 59 1005.9
20260507145001 78 0.0 0.0 0.00 0.00 0.00 57 1006.0
20260507142959 80 0.0 0.0 0.00 0.00 0.00 54 1006.1
20260507140959 83 0.0 0.0 0.00 0.00 0.00 64 1006.1
20260507134959 83 0.0 0.0 0.00 0.00 0.00 65 1006.2
20260507132959 83 0.0 0.0 0.00 0.00 0.00 65 1006.2
20260507130958 83 0.0 0.0 0.00 0.00 0.00 65 1006.0
20260507124958 83 0.0 0.0 0.00 0.00 0.00 65 1005.9
20260507122959 83 0.0 0.0 0.00 0.00 0.00 65 1005.9
20260507120959 84 0.0 0.0 0.00 0.00 0.00 63 1005.7
20260507114959 84 0.0 0.0 0.00 0.00 0.00 62 1005.5
20260507112958 84 0.0 0.0 0.00 0.00 0.00 62 1005.3
20260507110959 84 0.0 0.0 0.00 0.00 0.00 62 1005.1
20260507104959 84 0.0 0.0 0.00 0.00 0.00 62 1004.9
20260507102958 83 0.0 0.0 0.00 0.00 0.00 64 1004.7
20260507100958 86 0.0 0.0 0.00 0.00 0.00 59 1004.7
20260507094958 85 0.0 0.0 0.00 0.00 0.00 60 1004.8
20260507092958 83 0.0 0.0 0.00 0.00 0.00 63 1004.4
20260507090958 84 0.0 0.0 0.00 0.00 0.00 61 1004.3